Regional Weather Roundup
Issued by NWS

Home | Current Version | Previous Version | Text Only | Print | Product List | Glossary On
Versions: 1 2 3 4 5 6 7 8 9 10 11 12 13 14 15 16 17 18 19 20 21 22 23 24 25 26 27 28 29 30 31 32 33 34 35 36 37 38 39 40 41 42 43 44 45 46 47 48 49 50
000
ASUS43 KMPX 251001
RWRMN
WEATHER ROUNDUP FOR MINNESOTA
NATIONAL WEATHER SERVICE TWIN CITIES/CHANHASSEN MN
500 AM CDT THU MAY 25 2017


NOTE: "FAIR" INDICATES FEW OR NO CLOUDS BELOW 12,000 FEET WITH NO
SIGNIFICANT WEATHER AND/OR OBSTRUCTIONS TO VISIBILITY. N/A MEANS
CURRENT SKY AND/OR WEATHER CONDITIONS ARE NOT AVAILABLE.

MNZ060>063-068>070-251100-
   Twin Cities Metro

CITY           SKY/WX    TMP DP  RH WIND       PRES   REMARKS
TWIN CITIES    CLEAR     51  47  86 E8        29.69S
ST PAUL        CLEAR     48  48 100 CALM      29.71R
CRYSTAL        CLEAR     44  41  89 CALM      29.68S
BLAINE         CLEAR     48  48 100 E5        29.70R
LAKEVILLE      CLEAR     45  45 100 CALM      29.70S FOG
EDEN PRAIRIE   CLEAR     49  46  90 E3        29.68S
SOUTH ST PAUL  CLEAR     47  46  96 CALM      29.70S
LAKE ELMO      FAIR      43  41  93 CALM      29.71S
$$
MNZ001>005-007-008-013>017-022>024-027-028-251100-
   Northwest Minnesota

CITY           SKY/WX    TMP DP  RH WIND       PRES   REMARKS
BEMIDJI        PTCLDY    44  42  93 SE7       29.68R
HALLOCK        MOCLDY    50  43  76 SE14      29.59F
ROSEAU         CLOUDY    48  43  81 SE7       29.66R
WARROAD        PTCLDY    46  43  87 SE9       29.67F
CROOKSTON      PTCLDY    48  43  81 SE13      29.61F
FOSSTON        CLOUDY    41  37  87 E5        29.65F
DETROIT LAKES  CLEAR     46  43  87 SE7       29.66S
MOORHEAD       PTCLDY    48  41  76 SE7       29.62F
PARK RAPIDS    CLEAR     47  41  80 SE6       29.67R
MAHNOMEN       FAIR      46  42  86 SE7       29.64S
$$
MNZ006-009>011-018-025>026-251100-
   North Central Minnesota

CITY           SKY/WX    TMP DP  RH WIND       PRES   REMARKS
BAUDETTE       CLEAR     40  38  93 SE6       29.69S
FLAG ISLAND    CLEAR     52  45  76 S17       29.67S
INTL FALLS     CLEAR     39  36  89 E7        29.72S
WASKISH        CLEAR     43  39  87 E3        29.69S
BIG FORK       CLEAR     43  39  87 SE3       29.71S
LONGVILLE      CLEAR     41  39  93 CALM      29.69S
GRAND RAPIDS   CLEAR     41  39  93 SE3       29.73S
CRANE LAKE     CLEAR     30  30 100 CALM      29.77S
COOK           CLEAR     34  34 100 E3        29.74S
WALKER         FAIR      46  42  88 SE3       29.68R
$$
MNZ012-019>021-037-251100-
   Northeast Minnesota

CITY           SKY/WX    TMP DP  RH WIND       PRES   REMARKS
DULUTH         CLEAR     42  40  92 E7        29.74R
ELY            CLEAR     30  30 100 CALM      29.75S
HIBBING        FOG       32  32 100 CALM      29.73S VSB 1
EVELETH        CLEAR     36  35  94 NE3       29.75S
DULUTH HARBOR  CLEAR     43  41  93 N6        29.77R
TWO HARBORS    CLEAR     43  37  81 N3        29.74R
SILVER BAY     CLEAR     37  37 100 CALM      29.74R
GRAND MARAIS     N/A     40  38  93 CALM      29.77R
G MARAIS ARPRT CLEAR     39  34  81 NE5       29.78R
$$
MNZ029>031-032-039>041-046>048-054>057-064-251100-
   West Central Minnesota

CITY           SKY/WX    TMP DP  RH WIND       PRES   REMARKS
FERGUS FALLS   PTCLDY    50  43  76 SE12      29.63R
WHEATON        PTCLDY    46  43  87 SE12      29.63S
MORRIS         PTCLDY    46  45  93 SE9       29.62S
ALEXANDRIA     PTCLDY    46  42  86 SE8       29.66S
ELBOW LAKE     FAIR      48  43  81 E8        29.64R
WADENA         CLEAR     45  43  93 E5        29.66S
GLENWOOD       PTCLDY    45  43  93 SE7       29.66S
APPLETON       PTCLDY    48  45  87 SE7       29.62S
BENSON         CLEAR     48  45  87 S8        29.64F
ORTONVILLE     CLEAR     48  45  87 SE12      29.60S
MADISON        CLEAR     50  50 100 SE12      29.61F
WILLMAR        FAIR      48  45  87 SE9       29.65F
$$
MNZ033>034-036-042>043-049>051-058-059-251100-
   Central Minnesota

CITY           SKY/WX    TMP DP  RH WIND       PRES   REMARKS
ST CLOUD       CLEAR     47  46  97 E3        29.68S
SAUK CENTRE    FAIR      44  43  96 E5        29.67S
PAYNESVILLE    CLEAR     48  48 100 SE7       29.67S
AITKIN         MOCLDY    45  43  93 CALM      29.69S
PINE RIVER     PTCLDY    45  43  93 E6        29.72S
BRAINERD       PTCLDY    49  45  86 SE7       29.69S
STAPLES        CLEAR     46  43  87 CALM      29.68R
LONG PRAIRIE   FAIR      43  43 100 CALM      29.67S
LITTLE FALLS   CLEAR     46  43  87 E6        29.68F
LITCHFIELD     CLEAR     46  45  93 SE3       29.68S
BUFFALO        CLEAR     43  41  93 CALM      29.70R
MAPLE LAKE     CLEAR     43  42  99 CALM      29.70R FOG
HUTCHINSON     MOCLDY    46  44  95 E3        29.69S
$$
MNZ037-044-045-052-053-251100-
   East Central Minnesota

CITY           SKY/WX    TMP DP  RH WIND       PRES   REMARKS
PRINCETON      CLEAR     48  46  93 CALM      29.70S
MORA           CLEAR     45  41  87 CALM      29.72S
CAMBRIDGE      CLEAR     52  45  76 CALM      29.69S
RUSH CITY      MOCLDY    48  46  91 CALM      29.71S
MOOSE LAKE     CLEAR     39  37  93 NE3       29.72S
HINCKLEY       CLOUDY    48  45  87 E3        29.72S
CLOQUET        FOG       39  37  93 E3        29.73F VSB 1/2
MCGREGOR       CLOUDY    45  43  93 E5        29.72S
$$
MNZ071>073-080-081-089-090-097-098-251100-
   Southwest Minnesota

CITY           SKY/WX    TMP DP  RH WIND       PRES   REMARKS
MONTEVIDEO     CLEAR     46  46 100 S9        29.62F
CANBY          CLOUDY    46  44  93 CALM      29.62F
MARSHALL       CLEAR     47  45  93 S10       29.63F
REDWOOD FALLS  CLEAR     48  43  82 SE7       29.65F
OLIVIA         CLEAR     46  43  87 SE8       29.65F
PIPESTONE      CLEAR     48  43  81 SE12      29.61F
WINDOM         CLEAR     48  45  87 SE9       29.66F
WORTHINGTON    CLOUDY    48  45  89 SE9       29.65F
JACKSON        CLEAR     46  45  93 CALM      29.67F
TRACY          CLEAR     48  46  93 S8        29.64F
SLAYTON        CLEAR     42  41  97 SE7       29.66S
$$
MNZ065>067-074>077-082>085-091>093-251100-
   South Central Minnesota

CITY           SKY/WX    TMP DP  RH WIND       PRES   REMARKS
MANKATO          N/A     47  45  93 SE6       29.69R
NEW ULM        CLEAR     45  43  93 SE3       29.68R
ST JAMES       CLEAR     46  45  93 SE6       29.69R
FAIRMONT       CLEAR     46  45  96 S6        29.69R
GLENCOE        CLEAR     47  46  99 E3        29.68S
FARIBAULT      PTCLDY    45  45 100 CALM      29.70S FOG
OWATONNA       CLEAR     45  43  93 E3        29.70S
WASECA         CLEAR     45  43  93 SE6       29.71R
ALBERT LEA       N/A     45  45 100 CALM      29.69S
$$
MNZ078>079-086>088-094>096-251100-
   Southeast Minnesota

CITY           SKY/WX    TMP DP  RH WIND       PRES   REMARKS
ROCHESTER      CLOUDY    47  47 100 E6        29.71R
RED WING       CLEAR     46  45  93 CALM      29.70R
STANTON        CLEAR     47  45  93 CALM      29.69S
DODGE CENTER   CLEAR     46  46 100 CALM      29.71R FOG
WINONA         MOCLDY    48  46  93 CALM      29.70F
AUSTIN         CLEAR     45  43  93 CALM      29.70S FOG
PRESTON        MOCLDY    47  46  94 CALM      29.72R
$$
ABBREVIATIONS USED IN REMARKS
   TC - TEMPERATURES IN CELSIUS
  WCI - WIND CHILL INDEX
   HX - HEAT INDEX
  VSB - VISIBILITY
$$




USA.gov is the U.S. government's official web portal to all federal, state and local government web resources and services.